User: anonymous   Login
Location: Unspecified
(0.0000°N, 0.0000°E)
Time: 16:11:19
(UTC+00:00)
Language:

SIMPL - Orbit

View from above orbital plane
View from above orbital plane
View from above satellite
View from above satellite

Ground track
Ground track

The orbit is defined by the following mean orbital elements,

1 42983U 98067NF  22207.34139113  .10906988  12776-4  92768-4 0  9998
2 42983  51.6099 330.8193 0006097 301.9164  58.1274 16.51583326271200
Epoch (UTC): 26 July 2022 08:11:36
Eccentricity: 0.0006097
inclination: 51.6099°
perigee height: 131 km
apogee height: 139 km
right ascension of ascending node: 330.8193°
argument of perigee: 301.9164°
revolutions per day: 16.51583326
mean anomaly at epoch: 58.1274°

The dashed part of the orbit path shows where the satellite is in the earth's shadow,  

DLR